DW2906 San Cristobal Laguna ES current weather conditions

sailwx.info

Wind from 293

Air temperature 17.2° C
Dewpoint 14.9° C

Last reported at 2018-Jun-18 18:51 UTC.
Time now 2018-Jun-18 19:24 UTC

Location: N 28°29' W 016°19'.
View on Google Maps.

See reports from other nearby stations

  
Tides and Currents Weather Stations Pressure Air Temp Water Temp Dewpoint Dewpoint Depression Visibility Wind Speed Wind Dir Waves Ship Positions
date/time (UTC)wind fromknots sea level pressurealtimeterstation pressurevisibilityair tempwater tempwave heightnotes
2018-Jun-18 19:01 292 17.2
2018-Jun-18 18:51 293 17.2
2018-Jun-18 18:41 269 17.2
2018-Jun-18 18:31 295 17.2
2018-Jun-18 18:21 298 17.2
2018-Jun-18 18:11 284 17.2
2018-Jun-18 18:01 314 17.8
2018-Jun-18 17:51 290 17.8
2018-Jun-18 17:41 295 17.8
2018-Jun-18 17:31 279 17.8
2018-Jun-18 17:21 301 17.8
2018-Jun-18 17:11 304 17.8
2018-Jun-18 17:01 280 18.3
2018-Jun-18 16:51 255 18.3
2018-Jun-18 16:41 280 18.3
2018-Jun-18 16:31 290 18.3
2018-Jun-18 16:21 286 18.3
2018-Jun-18 16:11 293 18.3
2018-Jun-18 16:01 269 18.3
2018-Jun-18 15:51 309 18.9
2018-Jun-18 15:41 329 18.9
2018-Jun-18 15:31 318 18.9
2018-Jun-18 15:21 305 18.9
2018-Jun-18 15:11 293 18.9
2018-Jun-18 15:01 323 18.9
2018-Jun-18 14:52 270 18.9
2018-Jun-18 14:41 253 18.9
2018-Jun-18 14:31 280 18.9
2018-Jun-18 14:21 288 18.9
2018-Jun-18 14:11 262 18.3
2018-Jun-18 14:01 282 18.3
2018-Jun-18 13:51 286 18.3
2018-Jun-18 13:41 282 18.3
2018-Jun-18 13:31 312 18.3
2018-Jun-18 13:21 277 18.3
2018-Jun-18 13:11 331 18.3
2018-Jun-18 13:01 280 18.3
2018-Jun-18 12:01 291 17.2
2018-Jun-18 11:51 307 16.7
2018-Jun-18 11:41 291 16.7
2018-Jun-18 11:31 318 16.7
2018-Jun-18 11:21 331 16.7
2018-Jun-18 11:11 291 16.7
2018-Jun-18 11:01 305 16.7
2018-Jun-18 10:51 294 16.7
2018-Jun-18 10:41 276 16.7
2018-Jun-18 10:31 332 16.7
2018-Jun-18 10:21 295 16.7
2018-Jun-18 10:11 301 16.7
2018-Jun-18 10:01 311 16.7
2018-Jun-18 09:51 306 16.7
2018-Jun-18 09:41 290 16.7
2018-Jun-18 09:31 309 16.1
2018-Jun-18 09:21 313 16.1
2018-Jun-18 09:11 298 16.1
2018-Jun-18 09:01 308 16.1
2018-Jun-18 08:51 288 16.1
2018-Jun-18 08:41 282 16.1
2018-Jun-18 08:32 284 16.1
2018-Jun-18 08:21 274 15.6
2018-Jun-18 08:11 267 15.6
2018-Jun-18 08:01 282 15.6
2018-Jun-18 07:51 251 15.6
2018-Jun-18 07:41 288 15.6
2018-Jun-18 07:31 307 15.6
2018-Jun-18 07:21 299 15.6
2018-Jun-18 07:11 277 15.6
2018-Jun-18 07:01 280 15.6
2018-Jun-18 06:51 294 15.6
2018-Jun-18 06:41 295 15.6
2018-Jun-18 06:31 302 15.6
2018-Jun-18 06:21 338 15.6
2018-Jun-18 06:11 299 15.6
2018-Jun-18 06:01 293 15.6
2018-Jun-18 05:51 292 15.6
2018-Jun-18 05:41 311 15.6
2018-Jun-18 05:31 291 15.6
2018-Jun-18 05:21 294 15.6
2018-Jun-18 05:11 270 15.6
2018-Jun-18 05:01 330 15.6
2018-Jun-18 04:51 276 15.6
2018-Jun-18 04:41 306 16.1
2018-Jun-18 04:31 295 16.1
2018-Jun-18 04:21 303 15.6
2018-Jun-18 04:11 298 16.1
2018-Jun-18 04:01 305 16.1
2018-Jun-18 03:51 308 15.6
2018-Jun-18 03:41 305 15.6
2018-Jun-18 03:31 310 15.6
2018-Jun-18 03:21 289 15.6
2018-Jun-18 03:11 329 15.6
2018-Jun-18 03:01 326 16.1
2018-Jun-18 02:51 291 16.1
2018-Jun-18 02:41 313 16.1
2018-Jun-18 02:31 314 16.1
2018-Jun-18 02:21 299 16.1
2018-Jun-18 02:11 326 15.6
2018-Jun-18 02:01 316 15.6
2018-Jun-18 01:51 316 15.6
2018-Jun-18 01:41 294 15.6
2018-Jun-18 01:31 307 16.1
2018-Jun-18 01:21 302 16.1
2018-Jun-18 01:11 320 16.1
2018-Jun-18 01:01 332 15.6
2018-Jun-18 00:51 289 15.6
2018-Jun-18 00:41 310 15.6
2018-Jun-18 00:31 304 15.6
2018-Jun-18 00:21 289 15.6
2018-Jun-18 00:11 286 15.6
2018-Jun-18 00:01 286 16.1
2018-Jun-17 23:51 284 16.1
2018-Jun-17 23:41 289 16.1
2018-Jun-17 23:31 332 16.1
2018-Jun-17 23:21 301 16.1
2018-Jun-17 23:11 297 16.1
2018-Jun-17 23:01 297 16.1
2018-Jun-17 22:51 316 16.1
2018-Jun-17 22:41 324 16.1
2018-Jun-17 22:31 298 16.1
2018-Jun-17 22:21 304 15.6
2018-Jun-17 22:11 291 16.1
2018-Jun-17 22:01 292 16.1
2018-Jun-17 21:51 301 16.1
2018-Jun-17 21:41 311 16.1
2018-Jun-17 21:31 289 16.1
2018-Jun-17 21:21 301 16.1
2018-Jun-17 21:11 306 16.1
2018-Jun-17 21:01 294 16.1
2018-Jun-17 20:51 297 16.1
2018-Jun-17 20:41 293 16.1
2018-Jun-17 20:31 304 16.7
2018-Jun-17 20:21 299 16.7
2018-Jun-17 20:11 299 16.7
2018-Jun-17 20:01 292 16.7
2018-Jun-17 19:51 317 16.7
2018-Jun-17 19:41 313 16.7
2018-Jun-17 19:31 286 16.7
2018-Jun-17 19:21 294 16.7
2018-Jun-17 19:11 289 16.7
2018-Jun-17 19:01 309 16.7
2018-Jun-17 18:52 313 16.7
2018-Jun-17 18:41 263 17.2
2018-Jun-17 18:31 282 17.2
2018-Jun-17 18:21 299 17.2
2018-Jun-17 18:11 306 17.2
2018-Jun-17 18:01 324 17.2
2018-Jun-17 17:51 287 17.2
2018-Jun-17 17:41 276 17.2
2018-Jun-17 17:31 310 17.2
2018-Jun-17 17:21 292 17.2
2018-Jun-17 17:11 274 17.2
2018-Jun-17 17:01 275 17.2
2018-Jun-17 16:51 302 17.8
2018-Jun-17 16:41 279 17.8
2018-Jun-17 16:31 278 18.3
2018-Jun-17 16:21 294 18.3
2018-Jun-17 16:11 283 17.8
2018-Jun-17 16:01 292 17.8
2018-Jun-17 15:51 283 17.8
2018-Jun-17 15:41 311 17.8
2018-Jun-17 15:31 292 17.8
2018-Jun-17 15:21 319 18.3
2018-Jun-17 15:11 302 18.3
2018-Jun-17 15:01 301 18.3
2018-Jun-17 14:51 293 18.3
2018-Jun-17 14:41 287 18.3
2018-Jun-17 14:31 245 17.8
2018-Jun-17 14:21 265 17.8
2018-Jun-17 14:11 287 17.8
2018-Jun-17 14:01 305 17.8
2018-Jun-17 13:51 294 17.8
2018-Jun-17 13:41 303 17.8
2018-Jun-17 13:31 284 18.3
2018-Jun-17 13:21 295 17.8
2018-Jun-17 13:11 307 17.8
2018-Jun-17 13:01 284 18.3
2018-Jun-17 12:51 269 18.3
2018-Jun-17 12:41 290 18.3
2018-Jun-17 12:31 305 18.3
2018-Jun-17 12:21 276 18.3
2018-Jun-17 12:11 346 18.3
2018-Jun-17 12:01 307 18.3
2018-Jun-17 11:51 324 17.8
2018-Jun-17 11:41 300 17.8
2018-Jun-17 11:31 289 17.8
2018-Jun-17 11:21 284 17.8
2018-Jun-17 11:11 297 17.8
2018-Jun-17 11:01 289 17.8
2018-Jun-17 10:51 320 17.8
2018-Jun-17 10:41 309 17.8
2018-Jun-17 10:31 307 17.2
2018-Jun-17 10:21 282 17.2
2018-Jun-17 10:11 287 17.2
2018-Jun-17 10:01 304 17.2
2018-Jun-17 09:51 316 17.2
2018-Jun-17 09:41 280 17.2
2018-Jun-17 09:31 299 17.2
2018-Jun-17 09:21 309 16.7
2018-Jun-17 09:11 317 16.7
2018-Jun-17 09:01 303 16.7
2018-Jun-17 08:51 298 16.1
2018-Jun-17 08:41 303 16.7
2018-Jun-17 08:31 296 16.1
2018-Jun-17 08:21 313 16.1
2018-Jun-17 08:11 282 16.1
2018-Jun-17 08:01 268 16.1
2018-Jun-17 07:51 288 16.1
2018-Jun-17 07:41 272 16.1
2018-Jun-17 07:31 295 15.6
2018-Jun-17 07:21 299 15.6
2018-Jun-17 07:11 292 15.6
2018-Jun-17 07:01 291 15.0
2018-Jun-17 06:51 301 15.0
2018-Jun-17 06:41 301 15.0
2018-Jun-17 06:31 298 15.0
2018-Jun-17 06:21 284 15.0
2018-Jun-17 06:11 289 15.0
2018-Jun-17 06:01 299 15.0
2018-Jun-17 05:51 262 15.0
2018-Jun-17 05:41 290 15.0
2018-Jun-17 05:31 268 15.0
2018-Jun-17 05:21 276 15.0
2018-Jun-17 05:11 301 15.0
2018-Jun-17 05:01 292 15.0
2018-Jun-17 04:51 295 15.0
2018-Jun-17 04:41 293 15.0
2018-Jun-17 04:31 276 15.0
2018-Jun-17 04:21 265 15.0
2018-Jun-17 04:11 290 15.0
2018-Jun-17 04:01 303 15.0
2018-Jun-17 03:51 278 15.0
2018-Jun-17 03:41 273 15.0
2018-Jun-17 03:31 289 15.0
2018-Jun-17 03:21 294 15.0
2018-Jun-17 03:11 288 15.0
2018-Jun-17 03:01 278 15.0
2018-Jun-17 02:51 280 15.0
2018-Jun-17 02:41 311 15.0
2018-Jun-17 02:31 290 15.0
2018-Jun-17 02:21 292 15.0
2018-Jun-17 02:11 278 15.0
2018-Jun-17 02:01 276 15.0
2018-Jun-17 01:51 274 15.6
2018-Jun-17 01:41 299 15.6
2018-Jun-17 01:31 280 15.6
2018-Jun-17 01:21 277 15.6
2018-Jun-17 01:11 297 15.6
2018-Jun-17 01:01 305 15.6
2018-Jun-17 00:52 296 15.6
2018-Jun-17 00:43 279 15.6
2018-Jun-17 00:32 320 15.6
2018-Jun-17 00:22 303 15.6
2018-Jun-17 00:12 264 15.6
2018-Jun-17 00:02 290 16.1
2018-Jun-16 23:52 272 16.1
2018-Jun-16 23:42 272 16.1
2018-Jun-16 23:32 260 16.1
2018-Jun-16 23:22 291 16.1
2018-Jun-16 23:12 270 16.1
2018-Jun-16 23:02 294 16.1
2018-Jun-16 22:52 307 16.1
2018-Jun-16 22:42 297 16.1
2018-Jun-16 22:32 288 16.1
2018-Jun-16 22:22 281 16.1
2018-Jun-16 22:12 270 16.1
2018-Jun-16 22:02 297 16.1
2018-Jun-16 21:52 284 16.1
2018-Jun-16 21:42 299 16.1
2018-Jun-16 21:32 296 16.1
2018-Jun-16 21:22 319 16.1
2018-Jun-16 21:12 275 16.1
2018-Jun-16 21:02 273 16.1
2018-Jun-16 20:52 290 16.1
2018-Jun-16 20:42 251 16.1
2018-Jun-16 20:32 277 16.1
2018-Jun-16 20:22 283 16.1
2018-Jun-16 20:12 267 16.1
2018-Jun-16 20:02 268 16.1
2018-Jun-16 19:53 264 16.1
2018-Jun-16 19:42 305 16.1
2018-Jun-16 19:33 262 16.1
2018-Jun-16 19:22 276 16.1
2018-Jun-16 19:12 301 16.1
2018-Jun-16 19:02 277 16.7